Regional Weather Roundup
Issued by NWS

Home | Current Version | Previous Version | Text Only | Print | Product List | Glossary On
Versions: 1 2 3 4 5 6 7 8 9 10 11 12 13 14 15 16 17 18 19 20 21 22 23 24 25 26 27 28 29 30 31 32 33 34 35 36 37 38 39 40 41 42 43 44 45 46 47 48 49 50
000
ASUS45 KCYS 171310
RWRWY

WYOMING REGIONAL WEATHER ROUNDUP
NATIONAL WEATHER SERVICE CHEYENNE WY
600 AM MST WED JAN 17 2018

NOTE:  "FAIR" INDICATES FEW OR NO CLOUDS BELOW 12,000 FEET
WITH NO SIGNIFICANT WEATHER AND/OR OBSTRUCTIONS TO VISIBILITY.

WYZ001-171400-
YELLOWSTONE NATIONAL PARK

CITY           SKY/WX    TMP DP  RH WIND       PRES   REMARKS
LK YELLOWSTONE   N/A      9   6  88 CALM      30.38S
W YELLOWSTONE  NOT AVBL

$$
WYZ002>013-054>058-071-098>099-171400-
NORTHERN WYOMING

CITY           SKY/WX    TMP DP  RH WIND       PRES   REMARKS
JACKSON        NOT AVBL
CODY           MOCLDY    18  12  77 S9        30.25F WCI   7
GREYBULL       FAIR      -2  -6  83 SE5       30.33R WCI -12
WORLAND        FAIR      -2  -4  91 SE7       30.31R WCI -15
SHERIDAN       FAIR      17   9  70 S6        30.25R WCI   9
BUFFALO        FAIR      34   8  33 NW7       30.23R WCI  28
GILLETTE         N/A    N/A N/A N/A MISG      30.23R
HULETT         FAIR      21   5  49 MISG      30.23R
NEWCASTLE      FAIR      18   1  49 CALM      30.21S

$$
WYZ014>020-022>026-101>103-171400-
CENTRAL WYOMING

CITY           SKY/WX    TMP DP  RH WIND       PRES   REMARKS
BIG PINEY      FAIR       5   3  91 NW5       30.33R WCI  -4
PINEDALE       FAIR       1  -2  85 NW5       30.32S WCI  -8
DUBOIS         FAIR      32  19  59 W15G24    30.28S WCI  22
LANDER         FAIR      13  10  88 NW3       30.30R
RIVERTON       FAIR       9   6  88 NE3       30.31R
CASPER         FAIR      27  10  49 SW14      30.27R WCI  16
DOUGLAS        FAIR       6   2  83 CALM      30.25R

$$
WYZ021-027>030-104>119-171400-
SOUTHERN WYOMING

CITY           SKY/WX    TMP DP  RH WIND       PRES   REMARKS
EVANSTON       FAIR      29  19  66 SW3       30.34R
FORT BRIDGER   PTSUNNY   31  22  68 NW7       30.35S WCI  24
ROCK SPRINGS   MOCLDY    20  12  71 W9        30.32R WCI   9
DIXON            N/A      9   2  74 CALM      30.39R
RAWLINS        FAIR      10   2  69 CALM      30.32R
SARATOGA       FAIR      10   0  61 CALM      30.32R
LARAMIE        FAIR       5  -5  63 NE5       30.25R WCI  -4
CHEYENNE       FAIR      15   1  53 W7        30.21R WCI   5
TORRINGTON     FAIR       5   1  83 W5        30.23R WCI  -4

$$



USA.gov is the U.S. government's official web portal to all federal, state and local government web resources and services.